Temperature
5 5 5 4 4 5 5 5 5 5 5 5 5 5 5 5 6 6 6 6 6 7 7 7 7 7 7 7 7 7 7 7 7 6 6 6 6 6 6 6 7 7 7
4 4 4 4 4 4 4 4 4 4 4 4 4 4 4 5 5 5 5 6 6 6 6 6 6 6 6 6 6 6 6 6 6 6 5 5 5 5 5 6 6 6 6
3 3 3 3 3 3 3 3 3 3 3 3 3 3 4 4 4 4 5 5 5 5 5 5 6 6 5 5 5 5 5 5 5 5 5 4 4 4 4 5 5 5 5
2 2 2 2 2 2 2 3 3 3 3 3 3 3 3 3 3 4 4 4 4 4 4 5 5 5 5 5 5 4 4 5 5 4 4 4 4 4 3 4 4 4 4
2 1 1 1 1 1 1 2 2 2 2 2 2 2 2 3 3 3 3 3 4 4 4 4 4 4 4 4 4 4 4 4 4 4 4 4 4 3 3 3 3 4 4
1 1 0 0 0 0 0 1 1 1 1 1 2 2 2 2 2 2 3 3 3 3 3 3 3 3 4 4 4 3 3 3 3 3 3 3 3 3 3 3 3 3 3
0 0 -0 -0 -1 -1 -0 -0 0 0 1 1 1 1 1 1 2 2 2 2 2 2 3 3 3 3 3 3 3 3 3 3 3 3 3 3 3 2 2 2 2 2 2
-0 -1 -1 -1 -1 -1 -1 -1 -0 -0 -0 0 0 0 1 1 1 1 1 1 1 2 2 2 2 2 2 2 2 2 2 2 2 2 2 2 2 2 2 2 1 1 1
-1 -2 -2 -2 -2 -2 -2 -1 -1 -1 -1 -1 -0 -0 0 0 0 0 0 1 1 1 1 1 2 2 2 2 2 2 2 2 2 1 1 1 1 1 1 1 1 1 0
-2 -2 -3 -3 -3 -3 -2 -2 -2 -2 -1 -1 -1 -1 -1 -0 -0 -0 -0 -0 0 0 0 1 1 1 1 1 1 1 1 1 1 1 1 1 1 1 0 0 0 0 -0
-3 -3 -3 -3 -3 -3 -3 -3 -2 -2 -2 -2 -2 -2 -1 -1 -1 -1 -1 -1 -1 -1 -0 -0 -0 0 0 0 0 0 0 0 0 0 0 0 0 -0 -0 -0 -0 -0 -0
-4 -4 -4 -4 -4 -4 -4 -4 -3 -3 -3 -3 -2 -2 -2 -2 -2 -2 -1 -1 -1 -1 -1 -1 -1 -1 -0 -0 -0 -0 -0 -0 -1 -1 -1 -0 -1 -1 -1 -1 -1 -1 -1
-4 -5 -5 -5 -5 -5 -5 -5 -4 -4 -4 -3 -3 -3 -3 -2 -2 -2 -2 -2 -2 -2 -2 -2 -2 -1 -1 -1 -1 -1 -1 -1 -1 -1 -1 -1 -1 -1 -1 -1 -1 -1 -2
-5 -5 -6 -6 -6 -6 -5 -5 -5 -5 -4 -4 -4 -4 -3 -3 -3 -3 -3 -3 -3 -3 -2 -2 -2 -2 -2 -2 -2 -2 -2 -2 -2 -2 -2 -2 -2 -2 -2 -2 -2 -2 -2
-6 -6 -6 -6 -6 -6 -6 -6 -6 -5 -5 -5 -5 -5 -4 -4 -4 -4 -4 -4 -4 -3 -3 -3 -3 -3 -3 -3 -2 -2 -2 -2 -2 -2 -2 -2 -2 -3 -3 -3 -3 -3 -3
-6 -7 -7 -7 -7 -7 -7 -7 -6 -6 -6 -6 -6 -6 -5 -5 -5 -5 -5 -5 -4 -4 -4 -4 -4 -4 -3 -3 -3 -3 -3 -3 -3 -3 -3 -3 -3 -3 -3 -3 -3 -3 -3
-7 -7 -7 -7 -7 -7 -7 -7 -7 -7 -7 -7 -7 -6 -6 -6 -6 -6 -6 -5 -5 -5 -5 -5 -4 -4 -4 -4 -4 -4 -4 -4 -4 -4 -4 -4 -4 -4 -4 -4 -4 -4 -4
-7 -8 -8 -8 -8 -8 -8 -8 -7 -7 -7 -7 -7 -7 -7 -7 -7 -7 -6 -6 -6 -6 -6 -6 -5 -5 -5 -5 -5 -5 -5 -5 -5 -4 -4 -4 -4 -4 -4 -4 -5 -5 -4
-8 -8 -8 -8 -8 -8 -8 -8 -8 -8 -8 -8 -8 -8 -8 -8 -7 -7 -7 -7 -7 -7 -7 -6 -6 -6 -6 -6 -6 -6 -6 -6 -5 -5 -5 -5 -5 -5 -5 -5 -5 -5 -5
-8 -9 -9 -9 -9 -9 -9 -9 -9 -9 -9 -9 -9 -9 -8 -8 -8 -8 -8 -8 -8 -8 -7 -7 -7 -7 -7 -7 -7 -7 -7 -6 -6 -6 -6 -6 -6 -6 -6 -6 -6 -6 -5
-9 -9 -9 -9 -9 -9 -9 -9 -9 -9 -9 -9 -9 -9 -9 -9 -9 -9 -9 -8 -8 -8 -8 -8 -8 -8 -8 -7 -7 -7 -7 -7 -7 -7 -6 -6 -6 -6 -6 -6 -6 -6 -6
-10 -10 -10 -10 -10 -10 -10 -10 -10 -10 -10 -10 -10 -10 -9 -9 -9 -9 -9 -9 -9 -9 -9 -9 -9 -8 -8 -8 -8 -8 -8 -8 -8 -7 -7 -7 -7 -7 -7 -7 -6 -6 -6
-11 -11 -11 -11 -10 -11 -11 -11 -11 -11 -11 -11 -11 -10 -10 -10 -10 -10 -10 -10 -10 -10 -10 -9 -9 -9 -9 -9 -9 -9 -9 -8 -8 -8 -8 -8 -8 -8 -7 -7 -7 -7 -7
-11 -11 -11 -11 -11 -11 -11 -11 -11 -11 -11 -11 -11 -11 -11 -11 -10 -10 -10 -10 -10 -10 -10 -10 -10 -10 -10 -10 -10 -9 -9 -9 -9 -9 -9 -9 -8 -8 -8 -8 -8 -8 -8
-12 -12 -12 -12 -11 -11 -11 -12 -12 -12 -12 -12 -12 -12 -12 -11 -11 -11 -11 -11 -11 -11 -11 -11 -11 -11 -10 -10 -10 -10 -10 -10 -9 -9 -9 -9 -9 -9 -9 -8 -8 -8 -8
-12 -12 -12 -12 -12 -12 -12 -12 -12 -13 -13 -12 -12 -12 -12 -12 -12 -12 -12 -11 -12 -12 -12 -12 -12 -11 -11 -11 -11 -10 -10 -10 -10 -10 -10 -10 -9 -9 -9 -9 -9 -9 -9
Wind_Speed
3 3 3 3 3 4 4 4 5 4 3 2 2 2 1 1 2 3 3 3 4 4 4 4 3 2 2 2 2 2 3 2 1 2 2 2 1 2 1 2 3 3 4
3 3 3 3 2 2 2 3 4 4 4 2 2 1 1 1 2 2 3 3 3 3 4 4 3 2 2 2 2 2 1 1 1 2 1 1 1 1 0 1 1 2 3
3 3 3 2 2 2 1 1 1 2 4 3 2 1 1 1 1 1 1 2 3 3 4 4 4 3 3 2 2 3 2 2 1 1 2 2 1 1 1 2 1 1 1
3 3 2 2 1 1 1 0 1 1 2 3 3 3 2 2 2 2 1 2 3 3 4 4 4 4 3 3 2 2 1 3 2 1 0 1 2 1 1 2 1 2 2
3 3 2 2 2 2 1 0 0 0 1 2 3 3 3 2 1 1 2 2 2 3 4 5 4 4 3 3 3 2 2 2 3 2 1 0 0 2 2 2 2 2 2
3 4 3 3 2 2 2 1 0 0 1 1 3 4 3 3 3 3 3 3 2 2 4 5 4 4 3 4 4 4 4 3 3 3 2 2 2 2 2 2 2 3 2
4 4 4 3 3 3 2 2 1 1 1 2 3 3 4 4 4 4 4 3 3 2 3 4 4 4 5 5 5 5 4 4 4 4 4 3 3 2 2 2 2 2 2
4 4 4 3 3 3 3 3 2 2 2 2 3 3 3 3 3 4 3 4 3 4 4 5 5 5 6 6 5 5 5 4 5 5 4 3 4 3 3 3 2 2 2
4 4 4 4 4 3 3 3 3 3 2 2 3 3 3 3 3 3 3 3 3 4 5 5 5 5 6 6 5 5 5 5 6 6 5 4 4 3 3 3 4 4 4
4 4 4 4 4 3 4 4 3 3 3 2 2 3 3 3 3 3 4 4 4 4 4 5 5 5 6 6 6 5 5 6 6 5 6 5 4 4 3 4 4 4 5
3 3 3 3 3 4 4 4 4 4 4 4 3 3 3 3 3 4 4 4 4 4 5 5 5 6 6 6 6 7 7 7 7 7 7 7 5 5 4 4 4 4 4
2 3 3 3 4 4 4 4 4 4 4 4 4 4 3 3 3 4 4 4 4 4 5 5 6 7 6 6 7 8 8 8 9 8 8 8 7 7 6 5 6 5 5
3 3 3 3 4 4 4 4 4 5 5 5 4 4 4 4 4 4 4 4 4 4 5 5 6 7 7 7 7 8 8 9 9 9 9 9 8 9 7 7 7 6 6
2 3 4 4 4 4 4 5 5 5 6 5 5 5 5 5 5 5 4 4 4 5 5 6 6 6 7 7 7 8 8 8 9 9 9 9 10 10 9 8 8 7 6
3 3 4 4 5 5 5 5 6 6 6 6 5 6 5 5 5 5 5 5 5 5 5 6 6 6 6 7 7 7 8 8 8 9 9 10 11 13 11 9 8 8 7
5 4 4 5 5 6 7 6 6 6 6 6 6 6 6 5 5 5 5 5 5 5 5 5 6 6 7 9 11 9 7 7 8 8 8 9 11 14 16 17 15 13 10
5 5 5 5 6 6 6 7 6 6 6 6 6 6 5 6 6 6 6 6 6 5 5 5 6 6 7 10 11 11 8 7 7 8 8 8 9 12 10 13 16 15 16
6 6 6 6 5 5 6 6 6 6 6 6 6 6 6 6 6 6 6 6 5 5 5 6 6 6 7 10 11 11 8 7 8 8 8 9 8 9 10 9 10 10 11
5 5 5 6 5 5 5 5 6 6 6 6 7 7 6 6 6 6 7 7 6 6 6 6 6 6 7 9 10 11 6 7 8 8 8 9 9 13 14 10 9 9 9
5 5 5 5 5 5 5 5 6 6 7 7 7 7 6 6 6 7 7 6 6 6 6 7 6 6 7 10 11 10 6 7 7 7 8 11 11 14 14 10 9 11 9
6 5 5 5 5 5 4 5 6 6 7 7 7 7 6 6 6 6 6 6 6 6 6 7 6 6 8 9 11 11 6 6 7 7 6 7 12 15 15 13 10 12 9
6 5 5 5 5 5 4 5 6 6 6 6 6 6 6 6 6 6 6 6 6 6 6 6 6 5 6 8 9 11 11 10 7 7 6 7 12 13 14 12 12 14 11
5 5 5 6 6 5 5 5 6 6 6 6 6 6 6 6 6 6 6 5 5 5 5 5 5 5 5 6 10 11 12 12 8 7 10 11 13 13 11 13 14 11 7
6 5 5 6 6 6 6 6 6 5 5 6 6 6 6 6 6 6 5 5 4 5 5 6 6 6 6 5 5 5 7 9 9 7 9 12 13 11 10 9 9 7 7
6 5 5 6 7 7 6 7 6 5 5 6 6 6 6 6 6 6 5 6 5 6 6 6 6 6 7 8 10 8 6 5 7 6 5 5 5 5 5 5 5 5 6
6 6 6 6 6 7 7 7 6 5 5 6 6 5 5 5 5 5 6 9 9 11 11 11 10 8 10 13 13 13 13 13 10 7 5 5 6 6 6 5 5 5 5
Wind_Direction
124 119 114 116 120 129 137 152 151 152 142 141 145 147 150 140 111 116 123 131 139 139 124 115 105 96 111 119 108 101 105 103 88 70 47 14 78 119 85 86 92 92 94
96 98 104 102 101 126 141 152 163 162 159 166 166 156 150 160 148 135 131 140 145 152 147 132 135 119 110 121 120 113 111 142 116 101 105 40 348 330 239 105 133 112 95
140 130 115 106 100 89 94 172 164 167 164 160 139 125 101 94 139 160 166 161 170 169 165 158 154 156 149 160 162 157 133 161 214 144 132 137 211 299 275 221 187 158 122
103 111 103 107 105 88 76 64 137 151 166 156 164 171 182 200 214 189 186 199 192 188 177 173 171 171 166 175 196 180 178 159 181 232 243 173 153 161 276 281 234 206 189
100 103 89 78 75 68 68 52 75 161 176 177 180 187 205 209 191 174 190 214 218 205 192 188 183 185 184 185 194 203 205 186 184 192 206 232 255 193 192 240 260 270 245
83 89 82 73 59 52 47 38 39 278 239 217 203 200 205 205 196 198 203 213 228 225 208 205 199 199 196 196 199 203 210 212 208 207 199 188 193 198 196 217 239 255 266
64 70 65 54 42 35 25 13 4 314 287 255 235 225 215 211 207 209 208 213 220 229 228 217 212 211 208 204 202 205 214 214 216 218 215 211 215 208 208 217 241 257 272
55 51 49 43 34 24 11 0 341 309 300 280 262 247 230 225 219 213 214 218 223 224 223 223 220 224 219 214 206 211 214 214 217 229 222 219 220 209 206 210 214 255 263
45 36 31 28 25 14 358 347 340 328 309 300 294 268 245 231 228 223 218 223 230 230 224 230 225 223 222 215 207 214 215 215 217 222 225 223 226 223 216 208 200 209 239
37 31 23 11 5 3 357 351 340 334 326 312 294 287 273 253 242 234 229 228 231 231 227 237 237 227 226 221 214 218 219 215 217 218 217 222 224 221 220 216 217 216 222
26 12 8 8 5 4 1 351 343 340 336 326 308 297 287 274 254 242 238 236 236 233 230 233 239 231 228 225 220 218 218 219 220 221 220 223 219 219 221 221 222 226 225
17 3 8 11 6 359 352 347 343 338 330 325 322 308 293 284 268 259 252 245 242 242 236 232 240 234 230 227 223 223 223 221 221 220 220 222 221 221 221 221 224 227 228
1 1 2 356 348 344 340 338 338 335 329 325 320 315 303 294 281 273 267 257 251 251 247 236 239 237 232 230 230 226 225 225 225 222 221 220 214 222 223 220 223 226 234
341 343 338 334 333 331 330 329 330 331 328 327 321 313 307 299 292 284 277 266 258 250 246 244 247 242 238 238 236 232 228 229 230 228 226 222 217 220 219 224 222 222 227
327 324 322 326 329 330 329 328 327 328 324 320 314 309 310 309 304 297 287 280 270 262 252 247 251 248 242 241 236 233 233 232 233 232 231 230 228 227 226 228 220 217 224
310 314 320 322 321 321 320 320 319 320 319 316 311 312 313 312 306 299 290 285 280 272 264 254 255 250 250 251 249 246 241 239 239 239 235 236 234 235 237 239 235 229 225
313 309 305 304 307 309 312 310 312 315 313 310 307 307 307 304 300 296 292 283 279 273 264 260 260 256 255 256 255 253 249 242 243 241 238 241 238 237 232 238 239 238 237
311 307 306 304 308 309 309 310 313 311 308 306 305 305 304 299 298 295 289 283 278 274 269 268 263 260 264 264 261 258 254 247 245 243 238 236 236 234 233 232 234 234 235
309 306 306 305 307 308 310 315 313 310 308 307 306 306 303 296 296 291 287 284 279 275 271 271 263 259 264 266 265 262 251 250 249 248 243 239 236 239 236 233 233 239 244
325 319 317 317 312 311 315 314 310 309 306 306 307 306 300 292 289 288 287 286 282 278 277 274 265 259 260 266 267 263 253 252 253 250 243 243 244 243 236 229 228 235 238
329 328 326 320 312 313 316 310 308 306 307 310 309 307 300 294 290 289 289 285 283 279 275 273 271 264 264 267 268 264 253 250 254 253 245 240 246 249 244 239 233 237 236
331 333 328 321 319 319 318 312 307 307 311 312 310 308 305 298 296 290 289 284 279 275 274 274 273 268 266 270 270 267 263 260 254 255 250 245 247 250 251 246 242 241 239
326 329 325 319 321 322 319 310 308 313 316 313 309 308 308 305 300 292 290 287 279 274 276 275 278 281 277 272 278 278 273 270 263 260 258 255 253 253 252 249 246 241 233
327 328 326 321 320 324 323 312 309 314 314 311 310 310 311 309 304 298 293 289 281 278 277 275 278 280 282 277 274 273 275 272 268 266 262 261 259 255 250 245 244 234 223
322 322 317 315 317 322 322 318 317 318 316 312 310 310 307 303 302 300 296 294 279 274 276 272 270 273 274 275 278 277 272 263 256 261 257 250 247 242 240 236 234 228 222
320 321 321 320 319 322 321 320 318 315 312 311 311 310 307 304 303 305 307 305 300 296 291 288 284 281 281 286 285 284 279 276 270 265 249 244 239 236 234 232 229 225 221
Height
1488 1489 1491 1492 1493 1495 1497 1498 1499 1500 1502 1504 1505 1506 1508 1510 1511 1513 1515 1516 1518 1519 1521 1522 1524 1525 1526 1528 1530 1531 1533 1534 1536 1537 1539 1540 1542 1542 1544 1545 1546 1547 1547
1486 1487 1488 1489 1491 1492 1494 1496 1497 1498 1500 1501 1503 1505 1506 1507 1509 1511 1512 1514 1515 1516 1518 1519 1521 1522 1523 1525 1526 1528 1529 1531 1533 1534 1535 1537 1540 1540 1541 1542 1543 1544 1545
1483 1485 1486 1487 1488 1490 1491 1493 1494 1496 1497 1499 1501 1502 1503 1505 1506 1507 1508 1510 1512 1513 1514 1516 1517 1519 1520 1521 1523 1525 1526 1527 1530 1531 1533 1534 1535 1536 1537 1538 1539 1540 1541
1482 1483 1484 1485 1486 1487 1489 1490 1492 1493 1495 1496 1497 1498 1499 1501 1502 1504 1505 1507 1508 1510 1511 1512 1514 1515 1516 1518 1519 1521 1523 1524 1526 1528 1529 1532 1532 1533 1533 1535 1535 1536 1537
1480 1481 1482 1483 1484 1485 1486 1488 1489 1490 1491 1493 1494 1495 1497 1498 1499 1501 1502 1503 1505 1506 1507 1509 1510 1511 1513 1514 1516 1517 1519 1520 1522 1523 1525 1527 1528 1529 1530 1530 1531 1532 1533
1479 1480 1481 1482 1483 1484 1484 1485 1486 1487 1488 1489 1491 1492 1493 1494 1495 1497 1498 1499 1500 1502 1503 1505 1506 1507 1508 1510 1512 1513 1515 1516 1518 1520 1521 1522 1524 1525 1526 1526 1526 1527 1528
1479 1479 1480 1481 1481 1481 1482 1482 1483 1484 1485 1486 1487 1488 1490 1491 1492 1493 1494 1495 1496 1497 1499 1501 1501 1503 1504 1505 1507 1509 1510 1512 1513 1515 1516 1518 1519 1521 1522 1523 1522 1522 1523
1478 1479 1479 1480 1480 1480 1480 1480 1480 1481 1481 1482 1483 1485 1486 1487 1488 1489 1490 1491 1492 1493 1495 1496 1497 1498 1499 1501 1502 1503 1505 1507 1508 1510 1511 1513 1515 1516 1517 1518 1519 1518 1518
1478 1478 1478 1478 1478 1478 1478 1478 1478 1478 1478 1479 1480 1480 1482 1483 1483 1484 1485 1486 1487 1488 1490 1490 1492 1493 1494 1495 1496 1498 1499 1501 1502 1504 1506 1507 1509 1510 1512 1513 1514 1515 1514
1477 1477 1477 1477 1477 1476 1476 1476 1476 1476 1476 1476 1476 1477 1477 1478 1479 1480 1480 1481 1482 1483 1484 1485 1486 1487 1488 1489 1490 1492 1493 1495 1496 1498 1499 1501 1502 1504 1506 1507 1508 1509 1509
1477 1476 1476 1476 1475 1474 1474 1473 1473 1473 1472 1472 1473 1473 1473 1474 1474 1475 1475 1476 1477 1478 1478 1479 1480 1481 1482 1483 1484 1486 1487 1488 1489 1491 1492 1494 1496 1497 1499 1501 1502 1503 1504
1476 1475 1475 1474 1473 1472 1471 1471 1470 1470 1469 1469 1469 1469 1469 1469 1469 1470 1470 1471 1471 1472 1472 1473 1474 1475 1476 1477 1478 1479 1480 1481 1482 1484 1486 1487 1489 1490 1492 1494 1495 1496 1497
1474 1473 1472 1472 1471 1470 1469 1468 1467 1467 1466 1466 1465 1465 1464 1464 1464 1465 1465 1465 1465 1466 1466 1467 1467 1468 1469 1470 1471 1472 1473 1474 1476 1477 1478 1480 1482 1483 1485 1487 1488 1489 1491
1472 1471 1470 1469 1468 1467 1466 1465 1464 1463 1463 1462 1461 1461 1460 1460 1460 1460 1460 1460 1460 1460 1460 1460 1461 1462 1463 1463 1464 1466 1467 1467 1469 1470 1472 1473 1474 1476 1478 1479 1481 1482 1483
1470 1469 1468 1467 1465 1464 1463 1462 1461 1460 1459 1458 1457 1456 1456 1455 1455 1454 1454 1454 1454 1454 1454 1454 1455 1455 1456 1457 1458 1459 1460 1460 1461 1463 1464 1466 1467 1469 1471 1472 1473 1475 1476
1468 1466 1465 1464 1462 1461 1460 1458 1457 1456 1455 1454 1453 1452 1451 1450 1449 1449 1448 1448 1448 1448 1448 1448 1448 1449 1449 1450 1451 1452 1453 1454 1455 1455 1457 1458 1460 1461 1463 1465 1466 1468 1469
1465 1463 1462 1460 1459 1457 1456 1455 1453 1452 1451 1450 1448 1447 1446 1445 1444 1444 1443 1442 1442 1442 1442 1442 1442 1442 1443 1444 1445 1446 1447 1447 1447 1448 1450 1451 1452 1454 1455 1457 1458 1460 1461
1462 1460 1458 1456 1455 1454 1453 1451 1450 1448 1447 1445 1444 1442 1441 1440 1439 1439 1438 1437 1437 1436 1436 1436 1436 1436 1436 1438 1438 1439 1440 1440 1440 1441 1442 1443 1444 1446 1448 1449 1450 1450 1452
1459 1457 1455 1453 1451 1450 1448 1447 1445 1444 1442 1440 1439 1437 1436 1435 1434 1433 1433 1432 1431 1431 1431 1430 1430 1430 1430 1431 1432 1433 1432 1432 1433 1434 1435 1436 1437 1438 1440 1442 1442 1443 1444
1455 1453 1451 1449 1447 1446 1444 1443 1441 1439 1437 1436 1434 1433 1431 1430 1429 1428 1427 1427 1426 1425 1425 1425 1424 1424 1424 1425 1425 1426 1426 1425 1425 1426 1427 1428 1429 1431 1433 1434 1435 1435 1436
1451 1449 1447 1445 1444 1442 1441 1439 1437 1435 1434 1432 1430 1428 1427 1425 1424 1423 1422 1422 1421 1420 1419 1419 1418 1418 1418 1418 1419 1419 1420 1419 1419 1419 1419 1420 1422 1424 1425 1427 1427 1428 1430
1448 1446 1444 1442 1440 1439 1437 1435 1433 1431 1429 1427 1425 1424 1422 1421 1419 1418 1417 1417 1416 1415 1414 1413 1412 1412 1412 1412 1412 1413 1413 1413 1413 1412 1413 1413 1415 1416 1418 1419 1420 1422 1424
1444 1443 1441 1438 1437 1435 1433 1431 1429 1427 1425 1423 1421 1419 1418 1416 1415 1414 1412 1411 1411 1410 1409 1408 1407 1406 1406 1406 1406 1406 1406 1406 1406 1406 1406 1407 1408 1409 1410 1411 1413 1415 1416
1441 1439 1437 1435 1433 1431 1430 1428 1425 1423 1421 1419 1417 1415 1413 1411 1410 1409 1408 1407 1406 1405 1404 1403 1402 1401 1400 1400 1400 1399 1399 1399 1399 1399 1399 1400 1401 1402 1402 1403 1405 1406 1408
1438 1436 1434 1432 1430 1428 1426 1424 1422 1420 1417 1415 1413 1411 1409 1408 1406 1404 1403 1402 1401 1401 1400 1398 1397 1396 1395 1395 1395 1394 1393 1393 1393 1393 1393 1393 1393 1394 1395 1396 1397 1398 1400
1435 1433 1431 1429 1427 1425 1422 1421 1419 1417 1414 1412 1410 1408 1406 1404 1402 1400 1399 1397 1397 1396 1394 1393 1393 1391 1391 1390 1389 1388 1387 1387 1387 1387 1386 1386 1386 1387 1388 1389 1390 1392 1393